Regional Weather Roundup
Issued by NWS

Home | Current Version | Previous Version | Graphics & Text | Print | Product List | Glossary On
Versions: 1 2 3 4 5 6 7 8 9 10 11 12 13 14 15 16 17 18 19 20 21 22 23 24 25 26 27 28 29 30 31 32 33 34 35 36 37 38 39 40 41 42 43 44 45 46 47 48 49 50
000
ASUS45 KABQ 211410
RWRNM
WEATHER ROUNDUP FOR NEW MEXICO
NATIONAL WEATHER SERVICE ALBUQUERQUE NM
700 AM MST SUN DEC 21 2014

NOTE: "FAIR" MEANS FEW OR NO CLOUDS BELOW 12,000 FEET AGL WITH NO
       SIGNIFICANT WEATHER OR OBSTRUCTIONS TO VISION.

      THIS PRODUCT IS RELEASED AS TWO VERSIONS.  ONE VERSION NEAR
      THE TOP OF THE HOUR CONTAINING PRELIMINARY DATA FROM ALBUQUERQUE
      AND OTHER STATIONS.  A FINAL VERSION WITH ADDITIONAL DATA IS
      ISSUED ABOUT 10 MINUTES AFTER THE HOUR.

NMZ501-503-504-510>518-211500-
NORTHWEST PLATEAU/NORTHCENTRAL MOUNTAINS

CITY           SKY/WX    TMP DP  RH WIND       PRES   REMARKS
FARMINGTON     PTCLDY    28  26  92 NW5       30.05S WCI  23
LOS ALAMOS     PTCLDY    29  24  82 CALM      30.01F
SANTA FE       PTCLDY    33  23  66 N12       29.97F WCI  24
TAOS           PTCLDY    25  19  80 CALM      30.02F
ANGEL FIRE     FAIR      27  21  79 W7        29.97F WCI  19

$$
NMZ402-403-502-505>509-211500-
WESTCENTRAL MOUNTAINS/SOUTHWEST MOUNTAINS

CITY           SKY/WX    TMP DP  RH WIND       PRES   REMARKS
GALLUP         PTCLDY    26  23  88 E3        30.09R
GRANTS         PTCLDY    30  24  79 NW14      30.09R WCI  19
SILVER CITY    CLEAR     32  28  86 NW12      30.11R WCI  23

$$
NMZ407-409-411-412-211500-
SOUTHERN DESERTS

CITY           SKY/WX    TMP DP  RH WIND       PRES   REMARKS
LORDSBURG      FAIR      32  30  93 W7        30.12R WCI  26
DEMING         CLEAR     33  29  85 SW6       30.09R WCI  28
LAS CRUCES     CLEAR     31  28  90 CALM      30.08S
HOLLOMAN AFB   PTCLDY    28  23  82 SE1       30.06R
ALAMOGORDO     PTCLDY    28  23  80 E3        30.07R
T OR C         CLEAR     30  23  75 CALM      30.06R

$$
NMZ519>523-211500-
CENTRAL VALLEYS/CENTRAL HIGHLANDS

CITY           SKY/WX    TMP DP  RH WIND       PRES   REMARKS
ALBUQUERQUE    MOCLDY    31  24  75 SW6       30.04F WCI  25
DOUBLE EAGLE   MOCLDY    32  27  80 W5        30.05S WCI  27
MORIARTY ARPT  FAIR      35  23  61 SE3       30.00R
CLINES CORNERS CLEAR     30  22  72 NW30G38   29.92S WCI  15
BELEN          FAIR      24  23  96 NW6       30.06R WCI  16
SOCORRO        FAIR      24  22  91 CALM      30.05F

$$
NMZ524>526-539-540-211500-
SOUTHCENTRAL MOUNTAINS

CITY           SKY/WX    TMP DP  RH WIND       PRES   REMARKS
RUIDOSO        PTCLDY    36  18  48 NW12G22   30.01F WCI  27

$$
NMZ527>531-211500-
NORTHEAST HIGHLANDS/NORTHEAST PLAINS

CITY           SKY/WX    TMP DP  RH WIND       PRES   REMARKS
LAS VEGAS      PTCLDY    20  14  77 NE6       29.90R WCI  12
RATON          MOCLDY    23  15  71 CALM      29.84F
CLAYTON        CLEAR     33  19  56 W13       29.81F WCI  24

$$
NMZ532>537-211500-
EASTCENTRAL PLAINS

CITY           SKY/WX    TMP DP  RH WIND       PRES   REMARKS
TUCUMCARI      CLEAR     29  21  72 S3        29.86R
CANNON AFB     CLEAR     34  23  64 W9        29.89R WCI  26
CLOVIS AIRPORT PTCLDY    36  23  60 W14       29.88R WCI  27

$$
NMZ028-029-538-211500-
SOUTHEAST PLAINS

CITY           SKY/WX    TMP DP  RH WIND       PRES   REMARKS
ROSWELL        PTCLDY    32  21  64 SE5       29.94F WCI  27
ARTESIA        CLEAR     34  23  64 SW5       29.98S WCI  30
CARLSBAD       PTCLDY    33  26  75 W3        29.98R
HOBBS          CLEAR     32  32 100 S6        29.97R WCI  26


$$



USA.gov is the U.S. government's official web portal to all federal, state and local government web resources and services.